Stations météo

réclame
Mon MeteoGroup
Eindhoven, Pays-Bas (6370): Température de l'air & dewpoint: 10.08.2018 03:00:00 - 16.08.2018 03:00:00 (CEST)Eindhoven, Pays-Bas (6370): Température de l'air 5cm: 10.08.2018 03:00:00 - 16.08.2018 03:00:00 (CEST)Eindhoven, Pays-Bas (6370): Vitesse du vent & gusts: 10.08.2018 03:00:00 - 16.08.2018 03:00:00 (CEST)Eindhoven, Pays-Bas (6370): Direction du vent: 10.08.2018 03:00:00 - 16.08.2018 03:00:00 (CEST)Eindhoven, Pays-Bas (6370): reduced air pressure: 10.08.2018 03:00:00 - 16.08.2018 03:00:00 (CEST)Eindhoven, Pays-Bas (6370): visibility: 10.08.2018 03:00:00 - 16.08.2018 03:00:00 (CEST)Eindhoven, Pays-Bas (6370): Quantités de précipitations: 10.08.2018 03:00:00 - 16.08.2018 03:00:00 (CEST)
Date & Time tt [°C] td [°C] tt 5cm [°C] ff [km/h] ff [knt] fx [km/h] fx [knt] dd ppp [hPa] vv [km] rr [mm]
16.08.2018 03:00:00 15,7 13,6 14,5 13 7 18 10 S 1017,9 10 0,0
16.08.2018 02:00:00 15,3 13,7 13,2 8 4 14 8 S 1018,2 10 0,0
16.08.2018 01:00:00 15,8 14,2 14,5 11 6 14 8 S 1018,3 10 0,0
16.08.2018 00:00:00 15,7 14,1 13,2 8 4 11 6 S 1018,4 10 0,0
15.08.2018 23:00:00 16,4 14,6 13,3 5 3 7 4 S 1018,5 10 0,0
15.08.2018 22:00:00 17,0 15,0 14,3 5 3 11 6 SSW 1018,8 10 0,0
15.08.2018 21:00:00 18,7 15,3 17,6 9 5 22 12 SSW 1018,5 10 0,0
15.08.2018 20:00:00 20,7 15,3 20,8 15 8 29 16 SW 1018,6 10 0,0
15.08.2018 19:00:00 21,5 15,6 22,1 18 10 29 16 SW 1018,8 10 0,0
15.08.2018 18:00:00 21,6 15,4 22,5 16 9 25 14 SW 1019,2 10 0,0
15.08.2018 17:00:00 22,7 15,5 23,2 15 8 29 16 SW 1019,2 10 0,0
15.08.2018 16:00:00 22,9 14,9 23,8 24 13 36 19 SW 1019,3 10 0,0
15.08.2018 15:00:00 22,1 15,5 23,1 21 11 32 18 SW 1019,3 10 0,0
15.08.2018 14:00:00 22,3 16,3 22,1 16 9 25 14 SW 1019,5 10 0,0
15.08.2018 13:00:00 19,8 16,1 20,6 21 11 29 16 SSW 1019,7 10 0,0
15.08.2018 12:00:00 20,5 16,2 21,5 13 7 25 14 SSW 1019,6 10 0,0
15.08.2018 11:00:00 19,4 16,2 20,3 15 8 22 12 SW 1019,6 7 0,0
15.08.2018 10:00:00 19,0 16,2 19,6 15 8 22 12 SW 1019,2 7 0,0
15.08.2018 09:00:00 18,1 15,8 18,4 15 8 22 12 SW 1019,0 10 0,0
15.08.2018 08:00:00 17,2 14,9 17,2 13 7 18 10 SSW 1018,5 10 0,0
15.08.2018 07:00:00 16,6 14,4 16,4 13 7 18 10 SSW 1018,2 10 0,0
15.08.2018 06:00:00 16,5 14,3 16,3 9 5 14 8 SW 1017,9 10 0,0
15.08.2018 05:00:00 16,6 14,1 16,2 11 6 14 8 SW 1017,9 10 0,0
15.08.2018 04:00:00 16,3 14,0 15,8 9 5 14 8 SSW 1018,1 10 0,0
15.08.2018 03:00:00 15,3 13,1 13,6 9 5 14 8 SSW 1018,3 10 0,0
15.08.2018 02:00:00 16,4 13,4 15,7 11 6 14 8 SSW 1018,3 10 0,0
15.08.2018 01:00:00 17,4 14,3 16,8 5 3 7 4 SW 1018,5 10 0,0
15.08.2018 00:00:00 17,8 14,0 16,7 4 2 7 4 SW 1018,4 10 0,0
14.08.2018 23:00:00 18,1 13,6 17,3 5 3 11 6 WSW 1018,1 10 0,0
14.08.2018 22:00:00 18,2 13,1 17,6 8 4 22 12 W 1018,1 10 0,0
14.08.2018 21:00:00 19,1 12,2 18,4 11 6 18 10 W 1017,6 10 0,0
14.08.2018 20:00:00 20,6 12,3 20,6 15 8 29 16 W 1017,2 10 0,0
14.08.2018 19:00:00 21,5 14,3 22,0 16 9 29 16 WNW 1016,6 10 0,0
14.08.2018 18:00:00 21,1 15,9 21,8 16 9 29 16 NW 1016,6 10 0,0
14.08.2018 17:00:00 20,4 16,8 21,5 11 6 40 21 W 1016,4 10 0,2
14.08.2018 16:00:00 21,9 14,8 23,3 21 11 32 18 W 1016,0 5 0,0
14.08.2018 15:00:00 23,1 13,9 24,7 21 11 32 18 W 1015,3 10 0,0
14.08.2018 14:00:00 23,4 13,4 26,0 18 10 36 19 WNW 1014,9 10 0,0
14.08.2018 13:00:00 22,9 11,9 26,4 18 10 32 18 W 1014,6 10 0,0
14.08.2018 12:00:00 20,9 14,5 22,2 16 9 36 19 W 1014,5 10 0,0
14.08.2018 11:00:00 20,7 14,5 22,3 16 9 29 16 W 1014,1 10 0,0
14.08.2018 10:00:00 19,1 15,5 19,6 13 7 22 12 W 1013,7 10 0,0
14.08.2018 09:00:00 18,3 16,8 18,3 9 5 18 10 W 1013,1 9 0,0
14.08.2018 08:00:00 17,0 16,4 16,7 9 5 18 10 - 1012,3 4,1 0,0
14.08.2018 07:00:00 16,9 16,4 16,5 13 7 25 14 WSW 1011,4 3,6 0,0
14.08.2018 06:00:00 16,8 16,4 16,7 18 10 25 14 SW 1010,6 2,0 1,4
14.08.2018 05:00:00 16,9 16,2 16,7 15 8 25 14 WSW 1010,3 3,6 0,0
14.08.2018 04:00:00 16,9 16,3 16,6 16 9 25 14 SW 1010,0 4,4 0,0
14.08.2018 03:00:00 16,3 15,9 15,7 15 8 18 10 SW 1009,7 5 0,0
14.08.2018 02:00:00 15,9 15,5 15,5 13 7 18 10 SW 1009,6 6 0,0
14.08.2018 01:00:00 16,1 15,6 15,5 13 7 14 8 SW 1009,3 6 0,0
14.08.2018 00:00:00 16,1 15,5 15,4 11 6 14 8 SSW 1008,9 6 0,0
13.08.2018 23:00:00 16,0 15,5 15,5 11 6 14 8 SW 1008,5 7 0,0
13.08.2018 22:00:00 16,6 16,1 15,8 11 6 14 8 SW 1008,1 10 0,0
13.08.2018 21:00:00 16,7 15,8 16,3 8 4 18 10 SSW 1007,8 10 0,0
13.08.2018 20:00:00 17,5 15,8 17,4 9 5 18 10 SW 1007,5 10 5,0
13.08.2018 19:00:00 18,1 16,3 18,7 8 4 18 10 - 1007,0 10 1,0
13.08.2018 18:00:00 18,0 16,8 18,4 9 5 18 10 SSW 1006,9 10 0,5
13.08.2018 17:00:00 18,3 15,9 18,1 13 7 25 14 W 1006,7 10 0,3
13.08.2018 16:00:00 19,5 16,6 20,7 11 6 36 19 W 1006,4 10 0,0
13.08.2018 15:00:00 19,5 17,8 19,5 15 8 40 21 SW 1006,3 10 4,0
13.08.2018 14:00:00 18,4 17,0 18,7 21 11 40 21 SSW 1006,2 10 1,0
13.08.2018 13:00:00 20,0 17,4 20,0 22 12 32 18 SW 1006,0 10 0,0
13.08.2018 12:00:00 19,4 17,8 19,1 9 5 22 12 SW 1006,1 10 0,0
13.08.2018 11:00:00 18,9 17,7 19,5 16 9 25 14 SSW 1006,3 6 0,4
13.08.2018 10:00:00 18,6 17,4 18,9 15 8 18 10 SSW 1006,2 10 0,6
13.08.2018 09:00:00 17,9 16,6 18,2 9 5 14 8 S 1006,2 10 0,1
13.08.2018 08:00:00 16,4 15,4 16,0 5 3 11 6 S 1005,7 10 0,0
13.08.2018 07:00:00 16,3 14,9 15,9 5 3 22 12 SSE 1005,8 10 0,9
13.08.2018 06:00:00 18,3 12,9 17,4 15 8 22 12 S 1006,5 10 0,0
13.08.2018 05:00:00 18,5 13,4 17,2 9 5 22 12 ESE 1005,9 10 0,0
13.08.2018 04:00:00 19,1 11,5 18,1 8 4 25 14 WSW 1006,4 10 0,0
13.08.2018 03:00:00 20,7 10,1 19,8 11 6 14 8 SE 1006,7 10 0,0
13.08.2018 02:00:00 20,9 10,9 19,9 9 5 14 8 SSE 1007,3 10 0,0
13.08.2018 01:00:00 21,4 10,5 19,8 5 3 14 8 SSE 1007,9 10 0,0
13.08.2018 00:00:00 22,1 10,2 21,0 9 5 14 8 SSE 1008,4 10 0,0
12.08.2018 23:00:00 22,1 10,1 20,4 9 5 14 8 SSE 1008,8 10 0,0
12.08.2018 22:00:00 22,1 10,4 18,8 8 4 11 6 SSE 1009,4 10 0,0
12.08.2018 21:00:00 22,2 11,2 20,3 5 3 11 6 SSE 1009,6 10 0,0
12.08.2018 20:00:00 25,5 9,0 24,8 9 5 14 8 S 1009,7 10 0,0
12.08.2018 19:00:00 26,7 8,7 27,1 11 6 25 14 S 1010,3 10 0,0
12.08.2018 18:00:00 27,1 8,4 28,2 18 10 25 14 SSW 1010,9 10 0,0
12.08.2018 17:00:00 28,0 8,6 29,5 15 8 36 19 SSW 1011,6 10 0,0
12.08.2018 16:00:00 27,7 9,0 31,8 15 8 29 16 S 1012,4 10 0,0
12.08.2018 15:00:00 27,8 9,0 31,4 16 9 40 21 S 1013,3 10 0,0
12.08.2018 14:00:00 27,2 9,1 30,4 18 10 29 16 SSW 1014,1 10 0,0
12.08.2018 13:00:00 26,2 9,9 29,8 18 10 32 18 SSW 1014,8 10 0,0
12.08.2018 12:00:00 24,8 10,4 28,7 18 10 32 18 S 1015,5 10 0,0
12.08.2018 11:00:00 22,5 10,8 25,4 13 7 25 14 S 1016,0 10 0,0
12.08.2018 10:00:00 18,9 10,2 20,1 9 5 18 10 S 1016,5 10 0,0
12.08.2018 09:00:00 16,8 10,1 17,3 11 6 14 8 S 1016,9 10 0,0
12.08.2018 08:00:00 14,9 9,5 14,6 11 6 14 8 S 1017,2 10 0,0
12.08.2018 07:00:00 14,3 9,5 13,8 11 6 14 8 S 1017,4 10 0,0
12.08.2018 06:00:00 13,9 9,4 12,7 9 5 14 8 SSE 1017,5 10 0,0
12.08.2018 05:00:00 13,5 9,3 12,1 9 5 14 8 SSE 1018,2 10 0,0
12.08.2018 04:00:00 13,8 9,7 11,6 9 5 14 8 SSE 1019,0 10 0,0
12.08.2018 03:00:00 13,4 9,5 11,0 8 4 11 6 SSE 1019,6 10 0,0
12.08.2018 02:00:00 13,8 9,6 11,5 9 5 14 8 SSE 1020,2 10 0,0
12.08.2018 01:00:00 13,6 10,1 10,7 8 4 11 6 SE 1020,6 10 0,0
12.08.2018 00:00:00 11,8 10,1 9,2 5 3 7 4 ESE 1021,0 10 0,0
11.08.2018 23:00:00 13,6 9,9 9,6 4 2 7 4 - 1021,5 10 0,0
11.08.2018 22:00:00 14,3 10,1 11,3 5 3 11 6 NNE 1021,8 10 0,0
11.08.2018 21:00:00 17,4 9,7 16,0 8 4 11 6 N 1021,9 10 0,0
11.08.2018 20:00:00 19,8 9,1 20,1 8 4 18 10 W 1021,9 10 0,0
11.08.2018 19:00:00 20,9 8,3 22,7 9 5 22 12 - 1022,2 10 0,0
11.08.2018 18:00:00 21,4 8,6 23,7 9 5 29 16 W 1022,3 10 0,0
11.08.2018 17:00:00 21,3 7,8 24,3 15 8 25 14 W 1022,5 10 0,0
11.08.2018 16:00:00 22,0 7,4 25,6 18 10 40 21 W 1022,7 10 0,0
11.08.2018 15:00:00 22,1 7,2 23,8 21 11 43 23 W 1022,7 10 0,0
11.08.2018 14:00:00 21,0 9,2 24,0 15 8 32 18 WNW 1023,1 10 0,0
11.08.2018 13:00:00 19,8 8,3 23,8 21 11 40 21 W 1023,1 10 0,0
11.08.2018 12:00:00 19,7 9,0 22,5 21 11 32 18 W 1023,1 10 0,0
11.08.2018 11:00:00 18,1 10,3 20,3 18 10 29 16 WSW 1023,1 10 0,0
11.08.2018 10:00:00 17,0 12,3 18,2 16 9 29 16 WSW 1023,1 10 0,0
11.08.2018 09:00:00 15,3 12,5 16,0 15 8 22 12 SW 1022,6 10 0,0
11.08.2018 08:00:00 13,6 12,5 13,6 15 8 22 12 SW 1022,0 10 0,0
11.08.2018 07:00:00 12,1 11,6 11,3 13 7 18 10 SW 1021,5 10 0,0
11.08.2018 06:00:00 11,9 11,5 11,2 13 7 18 10 SW 1021,0 10 0,0
11.08.2018 05:00:00 12,2 11,7 11,3 13 7 22 12 SW 1020,5 10 0,0
11.08.2018 04:00:00 12,0 11,3 11,4 13 7 18 10 SW 1020,2 10 0,0
11.08.2018 03:00:00 12,9 12,1 12,2 15 8 22 12 SW 1020,3 10 0,0
11.08.2018 02:00:00 13,5 12,6 13,1 11 6 32 18 W 1020,3 10 2,9
11.08.2018 01:00:00 14,1 12,5 13,8 16 9 36 19 W 1020,4 10 0,7
11.08.2018 00:00:00 16,7 12,1 16,4 21 11 36 19 WSW 1019,9 10 0,0
10.08.2018 23:00:00 18,7 9,8 18,2 18 10 36 19 WSW 1019,5 10 0,0
10.08.2018 22:00:00 19,8 7,6 19,2 18 10 29 16 SSW 1019,4 10 0,0
10.08.2018 21:00:00 20,3 6,7 19,7 18 10 29 16 SSW 1019,3 10 0,0
10.08.2018 20:00:00 21,0 6,8 20,8 24 13 40 21 SSW 1019,2 10 0,0
10.08.2018 19:00:00 21,7 6,1 21,7 24 13 47 25 SSW 1019,3 10 0,0
10.08.2018 18:00:00 22,3 7,5 22,8 22 12 36 19 SSW 1019,9 10 0,0
10.08.2018 17:00:00 21,9 8,8 22,1 22 12 40 21 SW 1020,6 10 0,0
10.08.2018 16:00:00 20,3 8,8 21,1 26 14 47 25 WSW 1021,1 10 0,0
10.08.2018 15:00:00 20,8 7,5 22,5 29 16 47 25 SSW 1021,1 10 0,0
10.08.2018 14:00:00 20,9 9,1 23,4 31 17 43 23 SSW 1021,3 10 0,0
10.08.2018 13:00:00 19,0 12,7 16,5 34 18 54 29 SW 1021,5 10 0,2
10.08.2018 12:00:00 20,1 10,6 20,0 28 15 47 25 SSW 1021,4 10 0,0
10.08.2018 11:00:00 18,0 11,1 19,2 28 15 40 21 SW 1021,3 10 0,0
10.08.2018 10:00:00 17,1 11,7 18,2 24 13 36 19 SSW 1021,2 10 0,0
10.08.2018 09:00:00 15,6 12,5 15,7 24 13 36 19 SSW 1020,8 10 0,0
10.08.2018 08:00:00 14,0 12,6 13,8 18 10 25 14 SSW 1020,2 9 0,0
10.08.2018 07:00:00 13,2 12,3 12,7 15 8 22 12 S 1019,9 10 0,0
10.08.2018 06:00:00 12,3 11,5 11,2 9 5 18 10 S 1019,5 10 0,0
10.08.2018 05:00:00 12,4 11,7 11,5 13 7 22 12 SW 1019,2 10 0,0
10.08.2018 04:00:00 12,9 12,0 12,3 16 9 25 14 SW 1019,0 10 0,0
10.08.2018 03:00:00 13,2 12,3 12,7 21 11 32 18 SW 1018,4 10 0,0

tt = Température de l'air
td = dewpoint
tt 5cm = Température de l'air 5cm
ff = Vitesse du vent
fx = gusts
dd = Direction du vent
ppp = reduced air pressure
vv = visibility
rr = Quantités de précipitations

stations d'obs. à proximité